Time,TemperatureF,DewpointF,PressureIn,WindDirection,WindDirectionDegrees,WindSpeedMPH,WindSpeedGustMPH,Humidity,HourlyPrecipIn,Conditions,Clouds,dailyrainin,SoftwareType,DateUTC
2014-03-10 00:01:00,72.7,58.5,30.04,ESE,119,0.0,4.0,61,0.00,,FEW018,0.00,VWS V14.00,2014-03-10 05:01:00,
2014-03-10 00:06:00,72.5,58.3,30.04,ESE,119,0.0,1.0,61,0.00,,FEW018,0.00,VWS V14.00,2014-03-10 05:06:00,
2014-03-10 00:11:00,72.3,58.1,30.04,ESE,119,0.0,1.0,61,0.00,,FEW018,0.00,VWS V14.00,2014-03-10 05:11:00,
2014-03-10 00:16:00,72.1,57.9,30.03,ESE,119,0.0,1.0,61,0.00,,FEW018,0.00,VWS V14.00,2014-03-10 05:16:00,
2014-03-10 00:21:00,71.8,58.1,30.03,ESE,119,0.0,1.0,62,0.00,,FEW018,0.00,VWS V14.00,2014-03-10 05:21:00,
2014-03-10 00:26:00,71.6,57.9,30.03,ESE,119,0.0,1.0,62,0.00,,FEW018,0.00,VWS V14.00,2014-03-10 05:26:00,
2014-03-10 00:31:00,71.5,57.8,30.03,ESE,119,0.0,1.0,62,0.00,,FEW018,0.00,VWS V14.00,2014-03-10 05:31:00,
2014-03-10 00:36:00,71.3,57.6,30.03,ESE,119,0.0,1.0,62,0.00,,FEW018,0.00,VWS V14.00,2014-03-10 05:36:00,
2014-03-10 00:41:00,71.1,57.9,30.03,ESE,119,0.0,1.0,63,0.00,,FEW018,0.00,VWS V14.00,2014-03-10 05:41:00,
2014-03-10 00:46:00,71.1,57.9,30.02,ESE,119,0.0,1.0,63,0.00,,FEW018,0.00,VWS V14.00,2014-03-10 05:46:00,
2014-03-10 00:51:00,70.9,57.7,30.02,ESE,119,0.0,1.0,63,0.00,,FEW018,0.00,VWS V14.00,2014-03-10 05:51:00,
2014-03-10 00:56:00,70.8,57.6,30.02,ESE,119,0.0,1.0,63,0.00,,FEW018,0.00,VWS V14.00,2014-03-10 05:56:00,
2014-03-10 01:01:00,70.6,57.4,30.02,ESE,119,0.0,1.0,63,0.00,,FEW018,0.00,VWS V14.00,2014-03-10 06:01:00,
2014-03-10 01:06:00,70.4,57.2,30.02,ESE,119,0.0,0.0,63,0.00,,FEW018,0.00,VWS V14.00,2014-03-10 06:06:00,
2014-03-10 01:11:00,70.3,57.6,30.02,ESE,119,0.0,0.0,64,0.00,,FEW018,0.00,VWS V14.00,2014-03-10 06:11:00,
2014-03-10 01:16:00,70.1,57.4,30.02,ESE,119,0.0,0.0,64,0.00,,FEW018,0.00,VWS V14.00,2014-03-10 06:16:00,
2014-03-10 01:21:00,70.1,57.4,30.02,ESE,119,0.0,0.0,64,0.00,,FEW018,0.00,VWS V14.00,2014-03-10 06:21:00,
2014-03-10 01:26:00,69.9,57.2,30.02,ESE,119,0.0,0.0,64,0.00,,FEW018,0.00,VWS V14.00,2014-03-10 06:26:00,
2014-03-10 01:31:00,69.8,57.1,30.01,ESE,119,0.0,0.0,64,0.00,,FEW018,0.00,VWS V14.00,2014-03-10 06:31:00,
2014-03-10 01:36:00,69.8,57.1,30.01,ESE,119,0.0,0.0,64,0.00,,FEW018,0.00,VWS V14.00,2014-03-10 06:36:00,
2014-03-10 01:41:00,69.6,56.9,30.01,ENE,60,0.0,3.0,64,0.00,,FEW018,0.00,VWS V14.00,2014-03-10 06:41:00,
2014-03-10 01:46:00,69.4,56.7,30.01,ENE,60,0.0,3.0,64,0.00,,FEW018,0.00,VWS V14.00,2014-03-10 06:46:00,
2014-03-10 01:51:00,69.4,56.7,30.01,ENE,60,0.0,3.0,64,0.00,,FEW018,0.00,VWS V14.00,2014-03-10 06:51:00,
2014-03-10 01:56:00,69.3,56.6,30.01,ENE,60,2.0,3.0,64,0.00,,FEW018,0.00,VWS V14.00,2014-03-10 06:56:00,
2014-03-10 02:01:00,69.3,57.0,30.01,NE,51,0.0,4.0,65,0.00,,FEW018,0.00,VWS V14.00,2014-03-10 07:01:00,
2014-03-10 02:06:00,69.4,57.1,30.00,NE,51,2.0,3.0,65,0.00,,FEW018,0.00,VWS V14.00,2014-03-10 07:06:00,
2014-03-10 02:11:00,69.6,57.3,30.00,NE,51,0.0,3.0,65,0.00,,FEW018,0.00,VWS V14.00,2014-03-10 07:11:00,
2014-03-10 02:16:00,69.6,56.9,30.00,NE,51,0.0,3.0,64,0.00,,FEW018,0.00,VWS V14.00,2014-03-10 07:16:00,
2014-03-10 02:21:00,69.9,57.2,30.00,NE,40,4.0,4.0,64,0.00,,FEW018,0.00,VWS V14.00,2014-03-10 07:21:00,
2014-03-10 02:26:00,70.1,56.9,30.00,NE,40,0.0,4.0,63,0.00,,FEW018,0.00,VWS V14.00,2014-03-10 07:26:00,
2014-03-10 02:31:00,70.4,56.8,30.00,ENE,57,0.0,4.0,62,0.00,,FEW018,0.00,VWS V14.00,2014-03-10 07:31:00,
2014-03-10 02:36:00,70.8,56.7,30.00,North,9,2.0,7.0,61,0.00,,FEW018,0.00,VWS V14.00,2014-03-10 07:36:00,
2014-03-10 02:41:00,71.3,56.2,30.00,NE,53,3.0,7.0,59,0.00,,FEW018,0.00,VWS V14.00,2014-03-10 07:41:00,
2014-03-10 02:46:00,71.6,55.6,30.00,ENE,63,3.0,7.0,57,0.00,,FEW018,0.00,VWS V14.00,2014-03-10 07:46:00,
2014-03-10 02:51:00,72.0,55.5,30.00,NE,46,0.0,7.0,56,0.00,,FEW018,0.00,VWS V14.00,2014-03-10 07:51:00,
2014-03-10 02:56:00,72.3,55.2,30.00,NNE,30,4.0,7.0,55,0.00,,FEW018,0.00,VWS V14.00,2014-03-10 07:56:00,
2014-03-10 03:00:00,72.7,55.1,30.00,ENE,68,2.0,9.0,54,0.00,,FEW018,0.00,VWS V14.00,2014-03-10 08:00:00,
2014-03-10 03:05:00,73.0,54.9,29.99,NE,37,4.0,6.0,53,0.00,,FEW018,0.00,VWS V14.00,2014-03-10 08:05:00,
2014-03-10 03:10:00,73.3,55.2,29.99,NE,34,0.0,6.0,53,0.00,,FEW018,0.00,VWS V14.00,2014-03-10 08:10:00,
2014-03-10 03:15:00,73.5,54.3,29.99,NE,51,3.0,7.0,51,0.00,,FEW018,0.00,VWS V14.00,2014-03-10 08:15:00,
2014-03-10 03:20:00,73.7,53.9,29.99,NE,35,0.0,7.0,50,0.00,,FEW018,0.00,VWS V14.00,2014-03-10 08:20:00,
2014-03-10 03:25:00,73.9,53.6,29.99,NNE,19,4.0,7.0,49,0.00,,FEW018,0.00,VWS V14.00,2014-03-10 08:25:00,
2014-03-10 03:30:00,74.2,53.8,29.99,NE,52,0.0,7.0,49,0.00,,FEW018,0.00,VWS V14.00,2014-03-10 08:30:00,
2014-03-10 03:35:00,74.4,54.0,29.99,North,10,4.0,7.0,49,0.00,,FEW018,0.00,VWS V14.00,2014-03-10 08:35:00,
2014-03-10 03:40:00,74.4,54.0,29.99,NE,36,2.0,7.0,49,0.00,,FEW018,0.00,VWS V14.00,2014-03-10 08:40:00,
2014-03-10 03:45:00,74.6,54.2,29.99,NW,314,7.0,10.0,49,0.00,,FEW018,0.00,VWS V14.00,2014-03-10 08:45:00,
2014-03-10 03:50:00,74.7,54.3,29.99,NE,40,4.0,10.0,49,0.00,,FEW018,0.00,VWS V14.00,2014-03-10 08:50:00,
2014-03-10 03:55:00,74.7,53.7,29.99,NNE,29,2.0,10.0,48,0.00,,FEW018,0.00,VWS V14.00,2014-03-10 08:55:00,
2014-03-10 04:00:00,74.9,53.9,29.99,NNE,28,3.0,10.0,48,0.00,,FEW018,0.00,VWS V14.00,2014-03-10 09:00:00,
2014-03-10 04:05:00,75.1,54.1,29.98,ENE,67,0.0,6.0,48,0.00,,FEW018,0.00,VWS V14.00,2014-03-10 09:05:00,
2014-03-10 04:10:00,75.1,54.1,29.98,NE,43,1.0,6.0,48,0.00,,FEW018,0.00,VWS V14.00,2014-03-10 09:10:00,
2014-03-10 04:15:00,75.1,53.5,29.98,NNE,30,7.0,7.0,47,0.00,,FEW018,0.00,VWS V14.00,2014-03-10 09:15:00,
2014-03-10 04:20:00,75.3,53.7,29.98,ENE,61,2.0,11.0,47,0.00,,FEW018,0.00,VWS V14.00,2014-03-10 09:20:00,
2014-03-10 04:25:00,75.4,53.8,29.98,NE,43,1.0,11.0,47,0.00,,FEW018,0.00,VWS V14.00,2014-03-10 09:25:00,
2014-03-10 04:30:00,75.6,54.5,29.98,NNE,27,5.0,11.0,48,0.00,,FEW018,0.00,VWS V14.00,2014-03-10 09:30:00,
2014-03-10 04:35:00,75.6,54.5,29.98,ENE,68,3.0,11.0,48,0.00,,FEW018,0.00,VWS V14.00,2014-03-10 09:35:00,
2014-03-10 04:40:00,75.8,54.7,29.98,NE,56,1.0,11.0,48,0.00,,FEW018,0.00,VWS V14.00,2014-03-10 09:40:00,
2014-03-10 04:45:00,76.0,55.5,29.98,NE,54,4.0,11.0,49,0.00,,FEW018,0.00,VWS V14.00,2014-03-10 09:45:00,
2014-03-10 04:50:00,76.0,55.5,29.99,NE,49,3.0,11.0,49,0.00,,FEW018,0.00,VWS V14.00,2014-03-10 09:50:00,
2014-03-10 04:55:00,76.0,55.5,29.99,ENE,71,5.0,11.0,49,0.00,,FEW018,0.00,VWS V14.00,2014-03-10 09:55:00,
2014-03-10 05:00:00,76.0,55.5,29.99,ENE,61,5.0,11.0,49,0.00,,FEW018,0.00,VWS V14.00,2014-03-10 10:00:00,
2014-03-10 05:05:00,76.1,56.1,29.99,NE,53,2.0,7.0,50,0.00,,FEW018,0.00,VWS V14.00,2014-03-10 10:05:00,
2014-03-10 05:10:00,76.1,56.7,29.99,NE,45,4.0,7.0,51,0.00,,FEW018,0.00,VWS V14.00,2014-03-10 10:10:00,
2014-03-10 05:15:00,76.1,56.7,29.99,NE,50,5.0,7.0,51,0.00,,FEW018,0.00,VWS V14.00,2014-03-10 10:15:00,
2014-03-10 05:20:00,76.1,57.2,29.99,ENE,67,3.0,9.0,52,0.00,,FEW018,0.00,VWS V14.00,2014-03-10 10:20:00,
2014-03-10 05:25:00,76.3,57.4,29.99,NE,48,3.0,9.0,52,0.00,,FEW018,0.00,VWS V14.00,2014-03-10 10:25:00,
2014-03-10 05:30:00,76.3,57.4,29.99,NE,44,1.0,9.0,52,0.00,,FEW018,0.00,VWS V14.00,2014-03-10 10:30:00,
2014-03-10 05:35:00,76.3,57.9,29.99,ENE,66,2.0,9.0,53,0.00,,FEW018,0.00,VWS V14.00,2014-03-10 10:35:00,
2014-03-10 05:40:00,76.3,57.9,29.99,East,81,4.0,9.0,53,0.00,,FEW018,0.00,VWS V14.00,2014-03-10 10:40:00,
2014-03-10 05:45:00,76.3,57.4,29.99,NE,46,4.0,12.0,52,0.00,,FEW018,0.00,VWS V14.00,2014-03-10 10:45:00,
2014-03-10 05:50:00,76.5,57.6,29.99,ENE,67,7.0,12.0,52,0.00,,FEW018,0.00,VWS V14.00,2014-03-10 10:50:00,
2014-03-10 05:55:00,76.7,57.8,29.99,East,79,4.0,12.0,52,0.00,,FEW018,0.00,VWS V14.00,2014-03-10 10:55:00,
2014-03-10 06:00:00,76.7,57.8,29.99,East,98,3.0,12.0,52,0.00,,FEW018,0.00,VWS V14.00,2014-03-10 11:00:00,
2014-03-10 06:05:00,76.7,57.8,30.00,ENE,65,3.0,7.0,52,0.00,,FEW018,0.00,VWS V14.00,2014-03-10 11:05:00,
2014-03-10 06:10:00,76.7,57.8,30.00,East,81,5.0,7.0,52,0.00,,FEW018,0.00,VWS V14.00,2014-03-10 11:10:00,
2014-03-10 06:15:00,76.5,57.6,30.00,ENE,57,10.0,11.0,52,0.00,,FEW018,0.00,VWS V14.00,2014-03-10 11:15:00,
2014-03-10 06:20:00,76.5,57.6,30.01,ENE,58,3.0,11.0,52,0.00,,FEW018,0.00,VWS V14.00,2014-03-10 11:20:00,
2014-03-10 06:25:00,76.5,57.6,30.01,ENE,68,4.0,11.0,52,0.00,,FEW018,0.00,VWS V14.00,2014-03-10 11:25:00,
2014-03-10 06:30:00,76.5,57.6,30.01,NE,44,5.0,11.0,52,0.00,,FEW018,0.00,VWS V14.00,2014-03-10 11:30:00,
2014-03-10 06:35:00,76.5,57.6,30.01,NE,50,4.0,11.0,52,0.00,,FEW018,0.00,VWS V14.00,2014-03-10 11:35:00,
2014-03-10 06:40:00,76.5,57.6,30.01,East,94,6.0,11.0,52,0.00,,FEW018,0.00,VWS V14.00,2014-03-10 11:40:00,
2014-03-10 06:45:00,76.5,57.6,30.01,ENE,69,9.0,11.0,52,0.00,,FEW018,0.00,VWS V14.00,2014-03-10 11:45:00,
2014-03-10 06:50:00,76.5,57.6,30.01,NE,38,1.0,12.0,52,0.00,,FEW018,0.00,VWS V14.00,2014-03-10 11:50:00,
2014-03-10 06:55:00,76.7,57.8,30.01,NE,37,10.0,12.0,52,0.00,,FEW018,0.00,VWS V14.00,2014-03-10 11:55:00,
2014-03-10 07:00:00,76.7,57.8,30.01,North,350,3.0,13.0,52,0.00,,FEW018,0.00,VWS V14.00,2014-03-10 12:00:00,
2014-03-10 07:05:00,76.7,57.8,30.01,NE,48,5.0,10.0,52,0.00,,FEW018,0.00,VWS V14.00,2014-03-10 12:05:00,
2014-03-10 07:10:00,76.8,57.9,30.01,NE,55,4.0,10.0,52,0.00,,FEW018,0.00,VWS V14.00,2014-03-10 12:10:00,
2014-03-10 07:15:00,76.8,57.9,30.01,ENE,74,13.0,13.0,52,0.00,,FEW018,0.00,VWS V14.00,2014-03-10 12:15:00,
2014-03-10 07:20:00,77.0,58.0,30.02,ENE,63,10.0,13.0,52,0.00,,FEW018,0.00,VWS V14.00,2014-03-10 12:20:00,
2014-03-10 07:25:00,77.2,58.2,30.02,ENE,75,8.0,13.0,52,0.00,,FEW018,0.00,VWS V14.00,2014-03-10 12:25:00,
2014-03-10 07:30:00,77.6,58.6,30.02,East,82,10.0,13.0,52,0.00,,FEW018,0.00,VWS V14.00,2014-03-10 12:30:00,
2014-03-10 07:35:00,77.9,58.3,30.02,ENE,61,3.0,15.0,51,0.00,,FEW018,0.00,VWS V14.00,2014-03-10 12:35:00,
2014-03-10 07:40:00,78.3,58.2,30.02,ENE,73,6.0,15.0,50,0.00,,FEW018,0.00,VWS V14.00,2014-03-10 12:40:00,
2014-03-10 07:45:00,78.6,57.9,30.02,East,82,11.0,15.0,49,0.00,,FEW018,0.00,VWS V14.00,2014-03-10 12:45:00,
2014-03-10 07:50:00,78.6,57.9,30.02,East,82,3.0,15.0,49,0.00,,FEW018,0.00,VWS V14.00,2014-03-10 12:50:00,
2014-03-10 07:55:00,78.8,58.0,30.02,East,99,5.0,15.0,49,0.00,,FEW018,0.00,VWS V14.00,2014-03-10 12:55:00,
2014-03-10 08:00:00,79.0,57.7,30.02,NE,52,5.0,15.0,48,0.00,,FEW018,0.00,VWS V14.00,2014-03-10 13:00:00,
2014-03-10 08:05:00,79.2,57.2,30.02,ENE,58,7.0,11.0,47,0.00,,FEW018,0.00,VWS V14.00,2014-03-10 13:05:00,
2014-03-10 08:10:00,79.4,57.4,30.02,ENE,64,9.0,13.0,47,0.00,,FEW018,0.00,VWS V14.00,2014-03-10 13:10:00,
2014-03-10 08:15:00,79.6,57.6,30.02,ENE,71,9.0,13.0,47,0.00,,FEW018,0.00,VWS V14.00,2014-03-10 13:15:00,
2014-03-10 08:20:00,79.8,57.8,30.02,ENE,77,7.0,13.0,47,0.00,,FEW018,0.00,VWS V14.00,2014-03-10 13:20:00,
2014-03-10 08:25:00,79.6,57.6,30.02,East,81,11.0,13.0,47,0.00,,FEW018,0.00,VWS V14.00,2014-03-10 13:25:00,
2014-03-10 08:30:00,79.6,57.6,30.02,ENE,59,11.0,13.0,47,0.00,,FEW018,0.00,VWS V14.00,2014-03-10 13:30:00,
2014-03-10 08:35:00,79.6,57.6,30.02,ENE,59,5.0,13.0,47,0.00,,FEW018,0.00,VWS V14.00,2014-03-10 13:35:00,
2014-03-10 08:40:00,79.4,58.0,30.02,ENE,63,11.0,14.0,48,0.00,,FEW018,0.00,VWS V14.00,2014-03-10 13:40:00,
2014-03-10 08:45:00,79.6,58.2,30.02,NE,40,4.0,14.0,48,0.00,,FEW018,0.00,VWS V14.00,2014-03-10 13:45:00,
2014-03-10 08:50:00,80.1,57.5,30.03,ENE,74,9.0,14.0,46,0.00,,FEW018,0.00,VWS V14.00,2014-03-10 13:50:00,
2014-03-10 08:55:00,80.5,56.6,30.03,ENE,67,8.0,14.0,44,0.00,,FEW018,0.00,VWS V14.00,2014-03-10 13:55:00,
2014-03-10 08:59:00,81.1,56.5,30.03,ENE,60,7.0,14.0,43,0.00,,FEW018,0.00,VWS V14.00,2014-03-10 13:59:00,
2014-03-10 09:04:00,81.2,56.6,30.03,East,82,9.0,11.0,43,0.00,,FEW018,0.00,VWS V14.00,2014-03-10 14:04:00,
2014-03-10 09:09:00,81.4,56.1,30.03,East,81,9.0,13.0,42,0.00,,FEW018,0.00,VWS V14.00,2014-03-10 14:09:00,
2014-03-10 09:14:00,81.4,55.5,30.03,East,81,6.0,13.0,41,0.00,,FEW018,0.00,VWS V14.00,2014-03-10 14:14:00,
2014-03-10 09:19:00,81.2,56.0,30.03,NE,42,9.0,13.0,42,0.00,,FEW018,0.00,VWS V14.00,2014-03-10 14:19:00,
2014-03-10 09:24:00,81.4,56.1,30.03,ESE,112,4.0,13.0,42,0.00,,FEW018,0.00,VWS V14.00,2014-03-10 14:24:00,
2014-03-10 09:29:00,81.8,54.5,30.03,East,82,10.0,13.0,39,0.00,,FEW018,0.00,VWS V14.00,2014-03-10 14:29:00,
2014-03-10 09:34:00,82.6,55.9,30.03,ENE,74,5.0,13.0,40,0.00,,FEW018,0.00,VWS V14.00,2014-03-10 14:34:00,
2014-03-10 09:39:00,82.8,55.3,30.03,East,94,5.0,13.0,39,0.00,,FEW018,0.00,VWS V14.00,2014-03-10 14:39:00,
2014-03-10 09:44:00,82.8,55.3,30.03,ENE,71,6.0,13.0,39,0.00,,FEW018,0.00,VWS V14.00,2014-03-10 14:44:00,
2014-03-10 09:49:00,82.8,55.3,30.03,NE,49,5.0,13.0,39,0.00,,FEW018,0.00,VWS V14.00,2014-03-10 14:49:00,
2014-03-10 09:54:00,83.0,54.8,30.03,ESE,109,9.0,13.0,38,0.00,,FEW018,0.00,VWS V14.00,2014-03-10 14:54:00,
2014-03-10 09:59:00,83.4,55.9,30.03,ENE,71,9.0,13.0,39,0.00,,FEW018,0.00,VWS V14.00,2014-03-10 14:59:00,
2014-03-10 10:04:00,83.2,55.0,30.03,NE,55,3.0,10.0,38,0.00,,FEW018,0.00,VWS V14.00,2014-03-10 15:04:00,
2014-03-10 10:09:00,82.8,55.3,30.03,ENE,69,4.0,12.0,39,0.00,,FEW018,0.00,VWS V14.00,2014-03-10 15:09:00,
2014-03-10 10:14:00,82.8,56.7,30.03,NE,53,9.0,12.0,41,0.00,,FEW018,0.00,VWS V14.00,2014-03-10 15:14:00,
2014-03-10 10:19:00,83.0,56.2,30.03,ENE,58,4.0,13.0,40,0.00,,FEW018,0.00,VWS V14.00,2014-03-10 15:19:00,
2014-03-10 10:24:00,83.2,56.4,30.03,ENE,70,11.0,14.0,40,0.00,,FEW018,0.00,VWS V14.00,2014-03-10 15:24:00,
2014-03-10 10:29:00,83.2,57.1,30.03,NE,50,11.0,15.0,41,0.00,,FEW018,0.00,VWS V14.00,2014-03-10 15:29:00,
2014-03-10 10:34:00,83.0,56.9,30.03,East,84,10.0,15.0,41,0.00,,FEW018,0.00,VWS V14.00,2014-03-10 15:34:00,
2014-03-10 10:39:00,83.4,56.6,30.03,NNE,31,6.0,15.0,40,0.00,,FEW018,0.00,VWS V14.00,2014-03-10 15:39:00,
2014-03-10 10:44:00,83.8,56.9,30.03,North,9,7.0,15.0,40,0.00,,FEW018,0.00,VWS V14.00,2014-03-10 15:44:00,
2014-03-10 10:49:00,84.0,57.1,30.03,NNE,23,3.0,15.0,40,0.00,,FEW018,0.00,VWS V14.00,2014-03-10 15:49:00,
2014-03-10 10:54:00,83.8,56.9,30.03,East,94,8.0,15.0,40,0.00,,FEW018,0.00,VWS V14.00,2014-03-10 15:54:00,
2014-03-10 10:59:00,83.4,56.6,30.03,NNE,28,5.0,15.0,40,0.00,,FEW018,0.00,VWS V14.00,2014-03-10 15:59:00,
2014-03-10 11:04:00,83.4,57.3,30.02,ENE,62,7.0,10.0,41,0.00,,FEW018,0.00,VWS V14.00,2014-03-10 16:04:00,
2014-03-10 11:09:00,84.0,57.1,30.02,ENE,74,7.0,10.0,40,0.00,,FEW018,0.00,VWS V14.00,2014-03-10 16:09:00,
2014-03-10 11:14:00,84.3,56.7,30.02,ENE,77,2.0,12.0,39,0.00,,FEW018,0.00,VWS V14.00,2014-03-10 16:14:00,
2014-03-10 11:19:00,84.5,56.1,30.02,East,80,9.0,13.0,38,0.00,,FEW018,0.00,VWS V14.00,2014-03-10 16:19:00,
2014-03-10 11:24:00,84.5,57.5,30.02,ENE,72,6.0,13.0,40,0.00,,FEW018,0.00,VWS V14.00,2014-03-10 16:24:00,
2014-03-10 11:29:00,84.5,55.4,30.02,North,5,7.0,14.0,37,0.00,,FEW018,0.00,VWS V14.00,2014-03-10 16:29:00,
2014-03-10 11:34:00,84.7,56.3,30.02,ENE,74,2.0,14.0,38,0.00,,FEW018,0.00,VWS V14.00,2014-03-10 16:34:00,
2014-03-10 11:39:00,84.9,56.5,30.02,ENE,57,4.0,14.0,38,0.00,,FEW018,0.00,VWS V14.00,2014-03-10 16:39:00,
2014-03-10 11:44:00,85.1,55.9,30.02,ENE,73,7.0,14.0,37,0.00,,FEW018,0.00,VWS V14.00,2014-03-10 16:44:00,
2014-03-10 11:49:00,84.9,55.0,30.01,NNE,19,9.0,14.0,36,0.00,,FEW018,0.00,VWS V14.00,2014-03-10 16:49:00,
2014-03-10 11:54:00,84.9,55.8,30.01,East,80,3.0,14.0,37,0.00,,FEW018,0.00,VWS V14.00,2014-03-10 16:54:00,
2014-03-10 11:59:00,84.7,56.3,30.01,ENE,65,5.0,14.0,38,0.00,,FEW018,0.00,VWS V14.00,2014-03-10 16:59:00,
2014-03-10 12:04:00,84.5,56.1,30.00,NE,50,6.0,10.0,38,0.00,,FEW018,0.00,VWS V14.00,2014-03-10 17:04:00,
2014-03-10 12:09:00,84.0,55.7,30.00,NNE,32,4.0,14.0,38,0.00,,FEW018,0.00,VWS V14.00,2014-03-10 17:09:00,
2014-03-10 12:14:00,84.0,57.1,30.00,ENE,67,6.0,14.0,40,0.00,,FEW018,0.00,VWS V14.00,2014-03-10 17:14:00,
2014-03-10 12:19:00,84.1,57.2,29.99,ENE,63,5.0,14.0,40,0.00,,FEW018,0.00,VWS V14.00,2014-03-10 17:19:00,
2014-03-10 12:24:00,84.3,56.0,29.99,NNE,17,6.0,14.0,38,0.00,,FEW018,0.00,VWS V14.00,2014-03-10 17:24:00,
2014-03-10 12:29:00,84.3,55.2,29.99,East,84,3.0,14.0,37,0.00,,FEW018,0.00,VWS V14.00,2014-03-10 17:29:00,
2014-03-10 12:34:00,84.1,56.5,29.98,NE,56,7.0,14.0,39,0.00,,FEW018,0.00,VWS V14.00,2014-03-10 17:34:00,
2014-03-10 12:39:00,83.8,56.2,29.98,ENE,58,7.0,14.0,39,0.00,,FEW018,0.00,VWS V14.00,2014-03-10 17:39:00,
2014-03-10 12:44:00,83.6,56.0,29.98,East,90,6.0,14.0,39,0.00,,FEW018,0.00,VWS V14.00,2014-03-10 17:44:00,
2014-03-10 12:49:00,83.8,56.9,29.98,ENE,67,4.0,14.0,40,0.00,,FEW018,0.00,VWS V14.00,2014-03-10 17:49:00,
2014-03-10 12:54:00,84.0,56.4,29.98,NE,36,7.0,14.0,39,0.00,,FEW018,0.00,VWS V14.00,2014-03-10 17:54:00,
2014-03-10 12:59:00,83.6,56.0,29.98,NE,54,10.0,14.0,39,0.00,,FEW018,0.00,VWS V14.00,2014-03-10 17:59:00,
2014-03-10 13:04:00,83.4,56.6,29.98,NE,39,6.0,11.0,40,0.00,,FEW018,0.00,VWS V14.00,2014-03-10 18:04:00,
2014-03-10 13:09:00,83.2,56.4,29.98,NE,40,5.0,13.0,40,0.00,,FEW018,0.00,VWS V14.00,2014-03-10 18:09:00,
2014-03-10 13:14:00,83.2,56.4,29.98,NNE,15,6.0,13.0,40,0.00,,FEW018,0.00,VWS V14.00,2014-03-10 18:14:00,
2014-03-10 13:19:00,83.6,56.8,29.97,NE,55,4.0,13.0,40,0.00,,FEW018,0.00,VWS V14.00,2014-03-10 18:19:00,
2014-03-10 13:24:00,84.0,56.4,29.97,ENE,76,5.0,13.0,39,0.00,,FEW018,0.00,VWS V14.00,2014-03-10 18:24:00,
2014-03-10 13:29:00,84.1,56.5,29.97,NE,42,2.0,13.0,39,0.00,,FEW018,0.00,VWS V14.00,2014-03-10 18:29:00,
2014-03-10 13:34:00,84.0,57.1,29.96,NE,54,8.0,13.0,40,0.00,,FEW018,0.00,VWS V14.00,2014-03-10 18:34:00,
2014-03-10 13:39:00,84.0,56.4,29.96,NE,47,2.0,13.0,39,0.00,,FEW018,0.00,VWS V14.00,2014-03-10 18:39:00,
2014-03-10 13:44:00,84.0,57.8,29.96,NNE,16,6.0,13.0,41,0.00,,FEW018,0.00,VWS V14.00,2014-03-10 18:44:00,
2014-03-10 13:49:00,83.8,55.5,29.96,East,95,5.0,13.0,38,0.00,,FEW018,0.00,VWS V14.00,2014-03-10 18:49:00,
2014-03-10 13:54:00,83.6,56.8,29.96,NE,43,6.0,13.0,40,0.00,,FEW018,0.00,VWS V14.00,2014-03-10 18:54:00,
2014-03-10 13:59:00,83.8,56.9,29.96,ENE,63,5.0,13.0,40,0.00,,FEW018,0.00,VWS V14.00,2014-03-10 18:59:00,
2014-03-10 14:04:00,83.8,55.5,29.96,NNE,29,6.0,13.0,38,0.00,,FEW018,0.00,VWS V14.00,2014-03-10 19:04:00,
2014-03-10 14:09:00,83.8,55.5,29.96,East,92,6.0,15.0,38,0.00,,FEW018,0.00,VWS V14.00,2014-03-10 19:09:00,
2014-03-10 14:14:00,83.8,54.8,29.96,ENE,77,10.0,15.0,37,0.00,,FEW018,0.00,VWS V14.00,2014-03-10 19:14:00,
2014-03-10 14:19:00,84.0,55.0,29.95,East,79,1.0,15.0,37,0.00,,FEW018,0.00,VWS V14.00,2014-03-10 19:19:00,
2014-03-10 14:24:00,84.3,55.2,29.95,ENE,59,10.0,15.0,37,0.00,,FEW018,0.00,VWS V14.00,2014-03-10 19:24:00,
2014-03-10 14:29:00,84.1,55.8,29.95,NNE,28,9.0,15.0,38,0.00,,FEW018,0.00,VWS V14.00,2014-03-10 19:29:00,
2014-03-10 14:34:00,84.0,54.2,29.95,North,5,9.0,15.0,36,0.00,,FEW018,0.00,VWS V14.00,2014-03-10 19:34:00,
2014-03-10 14:39:00,84.1,55.8,29.95,NE,40,3.0,15.0,38,0.00,,FEW018,0.00,VWS V14.00,2014-03-10 19:39:00,
2014-03-10 14:44:00,84.3,56.7,29.95,East,84,1.0,15.0,39,0.00,,FEW018,0.00,VWS V14.00,2014-03-10 19:44:00,
2014-03-10 14:49:00,84.7,55.6,29.94,East,88,7.0,15.0,37,0.00,,FEW018,0.00,VWS V14.00,2014-03-10 19:49:00,
2014-03-10 14:54:00,84.7,55.6,29.94,ENE,59,10.0,15.0,37,0.00,,FEW018,0.00,VWS V14.00,2014-03-10 19:54:00,
2014-03-10 14:59:00,84.9,56.5,29.94,ENE,65,5.0,15.0,38,0.00,,FEW018,0.00,VWS V14.00,2014-03-10 19:59:00,
2014-03-10 15:03:00,84.9,55.0,29.93,North,360,3.0,11.0,36,0.00,,FEW018,0.00,VWS V14.00,2014-03-10 20:03:00,
2014-03-10 15:08:00,84.7,55.6,29.93,ENE,75,6.0,15.0,37,0.00,,FEW018,0.00,VWS V14.00,2014-03-10 20:08:00,
2014-03-10 15:13:00,84.5,54.6,29.93,NE,51,4.0,15.0,36,0.00,,FEW018,0.00,VWS V14.00,2014-03-10 20:13:00,
2014-03-10 15:18:00,84.3,55.2,29.93,NE,55,8.0,15.0,37,0.00,,FEW018,0.00,VWS V14.00,2014-03-10 20:18:00,
2014-03-10 15:23:00,84.3,55.2,29.93,East,81,5.0,15.0,37,0.00,,FEW018,0.00,VWS V14.00,2014-03-10 20:23:00,
2014-03-10 15:28:00,84.1,55.0,29.93,NE,51,9.0,15.0,37,0.00,,FEW018,0.00,VWS V14.00,2014-03-10 20:28:00,
2014-03-10 15:33:00,84.1,54.3,29.93,NNE,25,6.0,15.0,36,0.00,,FEW018,0.00,VWS V14.00,2014-03-10 20:33:00,
2014-03-10 15:38:00,83.8,54.0,29.93,NNE,14,7.0,15.0,36,0.00,,FEW018,0.00,VWS V14.00,2014-03-10 20:38:00,
2014-03-10 15:43:00,83.6,55.3,29.93,East,86,9.0,15.0,38,0.00,,FEW018,0.00,VWS V14.00,2014-03-10 20:43:00,
2014-03-10 15:48:00,83.4,55.2,29.93,ENE,75,6.0,15.0,38,0.00,,FEW018,0.00,VWS V14.00,2014-03-10 20:48:00,
2014-03-10 15:53:00,83.2,55.0,29.93,ENE,66,6.0,15.0,38,0.00,,FEW018,0.00,VWS V14.00,2014-03-10 20:53:00,
2014-03-10 15:58:00,83.0,53.3,29.93,ENE,74,5.0,15.0,36,0.00,,FEW018,0.00,VWS V14.00,2014-03-10 20:58:00,
2014-03-10 16:03:00,82.8,54.6,29.92,ENE,57,3.0,7.0,38,0.00,,FEW018,0.00,VWS V14.00,2014-03-10 21:03:00,
2014-03-10 16:08:00,82.6,53.7,29.92,ENE,61,0.0,13.0,37,0.00,,FEW018,0.00,VWS V14.00,2014-03-10 21:08:00,
2014-03-10 16:13:00,82.4,55.0,29.92,ENE,63,7.0,13.0,39,0.00,,FEW018,0.00,VWS V14.00,2014-03-10 21:13:00,
2014-03-10 16:18:00,82.4,55.0,29.92,East,86,7.0,13.0,39,0.00,,FEW018,0.00,VWS V14.00,2014-03-10 21:18:00,
2014-03-10 16:23:00,82.2,54.8,29.92,ENE,65,5.0,13.0,39,0.00,,FEW018,0.00,VWS V14.00,2014-03-10 21:23:00,
2014-03-10 16:28:00,82.2,54.8,29.92,NE,36,9.0,13.0,39,0.00,,FEW018,0.00,VWS V14.00,2014-03-10 21:28:00,
2014-03-10 16:33:00,82.0,54.6,29.93,ENE,67,4.0,13.0,39,0.00,,FEW018,0.00,VWS V14.00,2014-03-10 21:33:00,
2014-03-10 16:38:00,81.8,54.5,29.93,NNE,31,2.0,13.0,39,0.00,,FEW018,0.00,VWS V14.00,2014-03-10 21:38:00,
2014-03-10 16:43:00,81.6,54.3,29.93,NNE,33,1.0,13.0,39,0.00,,FEW018,0.00,VWS V14.00,2014-03-10 21:43:00,
2014-03-10 16:48:00,81.4,54.1,29.93,NE,45,7.0,13.0,39,0.00,,FEW018,0.00,VWS V14.00,2014-03-10 21:48:00,
2014-03-10 16:53:00,81.4,54.8,29.93,NE,49,0.0,13.0,40,0.00,,FEW018,0.00,VWS V14.00,2014-03-10 21:53:00,
2014-03-10 16:58:00,81.2,54.6,29.93,ENE,59,9.0,13.0,40,0.00,,FEW018,0.00,VWS V14.00,2014-03-10 21:58:00,
2014-03-10 17:03:00,81.1,54.5,29.93,ENE,63,3.0,13.0,40,0.00,,FEW018,0.00,VWS V14.00,2014-03-10 22:03:00,
2014-03-10 17:08:00,80.7,54.2,29.93,ENE,68,8.0,13.0,40,0.00,,FEW018,0.00,VWS V14.00,2014-03-10 22:08:00,
2014-03-10 17:13:00,80.5,54.0,29.93,ENE,65,7.0,13.0,40,0.00,,FEW018,0.00,VWS V14.00,2014-03-10 22:13:00,
2014-03-10 17:18:00,80.3,54.5,29.93,ENE,76,9.0,13.0,41,0.00,,FEW018,0.00,VWS V14.00,2014-03-10 22:18:00,
2014-03-10 17:23:00,80.3,55.1,29.93,East,101,7.0,13.0,42,0.00,,FEW018,0.00,VWS V14.00,2014-03-10 22:23:00,
2014-03-10 17:28:00,80.1,54.3,29.93,NE,36,4.0,13.0,41,0.00,,FEW018,0.00,VWS V14.00,2014-03-10 22:28:00,
2014-03-10 17:33:00,79.9,55.4,29.93,ENE,64,7.0,14.0,43,0.00,,FEW018,0.00,VWS V14.00,2014-03-10 22:33:00,
2014-03-10 17:38:00,79.8,54.7,29.93,NE,39,1.0,14.0,42,0.00,,FEW018,0.00,VWS V14.00,2014-03-10 22:38:00,
2014-03-10 17:43:00,79.6,54.5,29.93,NE,52,8.0,14.0,42,0.00,,FEW018,0.00,VWS V14.00,2014-03-10 22:43:00,
2014-03-10 17:48:00,79.4,54.3,29.94,East,81,3.0,14.0,42,0.00,,FEW018,0.00,VWS V14.00,2014-03-10 22:48:00,
2014-03-10 17:53:00,79.0,54.6,29.94,East,82,6.0,14.0,43,0.00,,FEW018,0.00,VWS V14.00,2014-03-10 22:53:00,
2014-03-10 17:58:00,78.8,54.4,29.94,ENE,59,3.0,14.0,43,0.00,,FEW018,0.00,VWS V14.00,2014-03-10 22:58:00,
2014-03-10 18:03:00,78.8,54.4,29.94,ENE,76,4.0,8.0,43,0.00,,FEW018,0.00,VWS V14.00,2014-03-10 23:03:00,
2014-03-10 18:08:00,78.6,54.3,29.94,East,80,3.0,9.0,43,0.00,,FEW018,0.00,VWS V14.00,2014-03-10 23:08:00,
2014-03-10 18:13:00,78.5,54.2,29.94,East,94,2.0,9.0,43,0.00,,FEW018,0.00,VWS V14.00,2014-03-10 23:13:00,
2014-03-10 18:18:00,78.3,54.6,29.94,East,81,5.0,9.0,44,0.00,,FEW018,0.00,VWS V14.00,2014-03-10 23:18:00,
2014-03-10 18:23:00,78.1,53.8,29.94,East,85,0.0,11.0,43,0.00,,FEW018,0.00,VWS V14.00,2014-03-10 23:23:00,
2014-03-10 18:28:00,77.9,54.3,29.94,NE,55,4.0,11.0,44,0.00,,FEW018,0.00,VWS V14.00,2014-03-10 23:28:00,
2014-03-10 18:33:00,77.7,54.1,29.95,ENE,72,6.0,11.0,44,0.00,,FEW018,0.00,VWS V14.00,2014-03-10 23:33:00,
2014-03-10 18:38:00,77.7,54.1,29.95,ENE,76,4.0,11.0,44,0.00,,FEW018,0.00,VWS V14.00,2014-03-10 23:38:00,
2014-03-10 18:43:00,77.6,54.6,29.95,ENE,62,9.0,11.0,45,0.00,,FEW018,0.00,VWS V14.00,2014-03-10 23:43:00,
2014-03-10 18:48:00,77.4,54.4,29.95,ENE,71,4.0,11.0,45,0.00,,FEW018,0.00,VWS V14.00,2014-03-10 23:48:00,
2014-03-10 18:53:00,77.4,54.4,29.95,ENE,74,5.0,11.0,45,0.00,,FEW018,0.00,VWS V14.00,2014-03-10 23:53:00,
2014-03-10 18:58:00,77.2,54.2,29.95,ENE,71,4.0,11.0,45,0.00,,FEW018,0.00,VWS V14.00,2014-03-10 23:58:00,
2014-03-10 19:03:00,77.2,54.2,29.95,East,82,2.0,6.0,45,0.00,,FEW018,0.00,VWS V14.00,2014-03-11 00:03:00,
2014-03-10 19:08:00,77.0,54.7,29.95,East,93,5.0,6.0,46,0.00,,FEW018,0.00,VWS V14.00,2014-03-11 00:08:00,
2014-03-10 19:13:00,77.0,54.7,29.95,ENE,74,4.0,6.0,46,0.00,,FEW018,0.00,VWS V14.00,2014-03-11 00:13:00,
2014-03-10 19:18:00,77.0,54.7,29.96,ESE,123,5.0,6.0,46,0.00,,FEW018,0.00,VWS V14.00,2014-03-11 00:18:00,
2014-03-10 19:23:00,76.8,54.5,29.96,ENE,73,4.0,6.0,46,0.00,,FEW018,0.00,VWS V14.00,2014-03-11 00:23:00,
2014-03-10 19:28:00,76.8,53.9,29.96,East,90,3.0,6.0,45,0.00,,FEW018,0.00,VWS V14.00,2014-03-11 00:28:00,
2014-03-10 19:33:00,76.7,53.2,29.96,ENE,62,1.0,10.0,44,0.00,,FEW018,0.00,VWS V14.00,2014-03-11 00:33:00,
2014-03-10 19:38:00,76.7,53.2,29.96,ENE,61,5.0,10.0,44,0.00,,FEW018,0.00,VWS V14.00,2014-03-11 00:38:00,
2014-03-10 19:43:00,76.7,53.8,29.96,East,80,5.0,10.0,45,0.00,,FEW018,0.00,VWS V14.00,2014-03-11 00:43:00,
2014-03-10 19:48:00,76.7,53.8,29.96,ESE,121,3.0,10.0,45,0.00,,FEW018,0.00,VWS V14.00,2014-03-11 00:48:00,
2014-03-10 19:53:00,76.7,54.4,29.96,ESE,110,1.0,10.0,46,0.00,,FEW018,0.00,VWS V14.00,2014-03-11 00:53:00,
2014-03-10 19:58:00,76.5,54.2,29.96,ESE,110,2.0,10.0,46,0.00,,FEW018,0.00,VWS V14.00,2014-03-11 00:58:00,
2014-03-10 20:03:00,76.5,54.2,29.96,East,92,1.0,3.0,46,0.00,,FEW018,0.00,VWS V14.00,2014-03-11 01:03:00,
2014-03-10 20:08:00,76.3,54.0,29.96,East,92,3.0,4.0,46,0.00,,FEW018,0.00,VWS V14.00,2014-03-11 01:08:00,
2014-03-10 20:13:00,76.1,53.8,29.96,East,92,0.0,4.0,46,0.00,,FEW018,0.00,VWS V14.00,2014-03-11 01:13:00,
2014-03-10 20:18:00,76.0,54.3,29.97,East,92,0.0,4.0,47,0.00,,FEW018,0.00,VWS V14.00,2014-03-11 01:18:00,
2014-03-10 20:23:00,75.6,54.0,29.97,East,92,0.0,4.0,47,0.00,,FEW018,0.00,VWS V14.00,2014-03-11 01:23:00,
2014-03-10 20:28:00,75.4,54.4,29.97,East,92,1.0,4.0,48,0.00,,FEW018,0.00,VWS V14.00,2014-03-11 01:28:00,
2014-03-10 20:33:00,75.1,54.1,29.98,East,92,0.0,4.0,48,0.00,,FEW018,0.00,VWS V14.00,2014-03-11 01:33:00,
2014-03-10 20:38:00,74.9,54.5,29.98,East,92,1.0,4.0,49,0.00,,FEW018,0.00,VWS V14.00,2014-03-11 01:38:00,
2014-03-10 20:43:00,74.6,54.2,29.98,East,92,0.0,4.0,49,0.00,,FEW018,0.00,VWS V14.00,2014-03-11 01:43:00,
2014-03-10 20:48:00,74.4,54.0,29.98,East,98,0.0,5.0,49,0.00,,FEW018,0.00,VWS V14.00,2014-03-11 01:48:00,
2014-03-10 20:53:00,74.2,54.4,29.98,NE,40,1.0,5.0,50,0.00,,FEW018,0.00,VWS V14.00,2014-03-11 01:53:00,
2014-03-10 20:58:00,73.9,54.1,29.98,NE,40,1.0,5.0,50,0.00,,FEW018,0.00,VWS V14.00,2014-03-11 01:58:00,
2014-03-10 21:02:00,73.7,53.9,29.98,NE,40,1.0,1.0,50,0.00,,FEW018,0.00,VWS V14.00,2014-03-11 02:02:00,
2014-03-10 21:07:00,73.5,53.7,29.98,NE,40,0.0,2.0,50,0.00,,FEW018,0.00,VWS V14.00,2014-03-11 02:07:00,
2014-03-10 21:12:00,73.3,53.6,29.98,NE,40,0.0,2.0,50,0.00,,FEW018,0.00,VWS V14.00,2014-03-11 02:12:00,
2014-03-10 21:17:00,73.0,53.8,29.98,NE,40,0.0,2.0,51,0.00,,FEW018,0.00,VWS V14.00,2014-03-11 02:17:00,
2014-03-10 21:22:00,72.8,53.6,29.98,NE,40,0.0,2.0,51,0.00,,FEW018,0.00,VWS V14.00,2014-03-11 02:22:00,
2014-03-10 21:27:00,72.7,53.5,29.98,NE,40,0.0,3.0,51,0.00,,FEW018,0.00,VWS V14.00,2014-03-11 02:27:00,
2014-03-10 21:32:00,72.5,53.9,29.99,NE,40,0.0,3.0,52,0.00,,FEW018,0.00,VWS V14.00,2014-03-11 02:32:00,
2014-03-10 21:37:00,72.3,53.7,29.99,NE,40,0.0,3.0,52,0.00,,FEW018,0.00,VWS V14.00,2014-03-11 02:37:00,
2014-03-10 21:42:00,72.1,53.5,29.99,NE,40,0.0,3.0,52,0.00,,FEW018,0.00,VWS V14.00,2014-03-11 02:42:00,
2014-03-10 21:47:00,72.0,53.4,29.99,NE,40,0.0,3.0,52,0.00,,FEW018,0.00,VWS V14.00,2014-03-11 02:47:00,
2014-03-10 21:52:00,71.8,53.8,29.99,NE,40,0.0,3.0,53,0.00,,FEW018,0.00,VWS V14.00,2014-03-11 02:52:00,
2014-03-10 21:57:00,71.6,53.6,29.99,NE,40,0.0,3.0,53,0.00,,FEW018,0.00,VWS V14.00,2014-03-11 02:57:00,
2014-03-10 22:02:00,71.5,53.5,29.99,NE,40,0.0,0.0,53,0.00,,FEW018,0.00,VWS V14.00,2014-03-11 03:02:00,
2014-03-10 22:07:00,71.3,53.8,29.99,NE,40,0.0,0.0,54,0.00,,FEW018,0.00,VWS V14.00,2014-03-11 03:07:00,
2014-03-10 22:12:00,71.1,53.6,29.99,NE,40,0.0,1.0,54,0.00,,FEW018,0.00,VWS V14.00,2014-03-11 03:12:00,
2014-03-10 22:17:00,70.9,53.4,29.99,NE,40,0.0,1.0,54,0.00,,FEW018,0.00,VWS V14.00,2014-03-11 03:17:00,
2014-03-10 22:22:00,70.8,53.8,29.99,NE,40,0.0,2.0,55,0.00,,FEW018,0.00,VWS V14.00,2014-03-11 03:22:00,
2014-03-10 22:27:00,70.6,53.7,29.99,NE,40,0.0,2.0,55,0.00,,FEW018,0.00,VWS V14.00,2014-03-11 03:27:00,
2014-03-10 22:32:00,70.4,54.0,29.99,NE,40,0.0,2.0,56,0.00,,FEW018,0.00,VWS V14.00,2014-03-11 03:32:00,
2014-03-10 22:37:00,70.3,54.4,29.99,NE,40,0.0,2.0,57,0.00,,FEW018,0.00,VWS V14.00,2014-03-11 03:37:00,
2014-03-10 22:42:00,69.9,54.0,29.99,NE,40,0.0,2.0,57,0.00,,FEW018,0.00,VWS V14.00,2014-03-11 03:42:00,
2014-03-10 22:47:00,69.8,54.4,29.99,NE,40,0.0,2.0,58,0.00,,FEW018,0.00,VWS V14.00,2014-03-11 03:47:00,
2014-03-10 22:52:00,69.6,54.2,29.99,NE,40,0.0,2.0,58,0.00,,FEW018,0.00,VWS V14.00,2014-03-11 03:52:00,
2014-03-10 22:57:00,69.4,54.0,29.99,NE,40,0.0,2.0,58,0.00,,FEW018,0.00,VWS V14.00,2014-03-11 03:57:00,
2014-03-10 23:01:00,69.4,54.0,29.99,NE,40,0.0,2.0,58,0.00,,FEW018,0.00,VWS V14.00,2014-03-11 04:01:00,
2014-03-10 23:02:00,69.3,53.9,29.99,NE,40,0.0,0.0,58,0.00,,FEW018,0.00,VWS V14.00,2014-03-11 04:02:00,
2014-03-10 23:07:00,69.1,54.2,29.99,NE,40,0.0,0.0,59,0.00,,FEW018,0.00,VWS V14.00,2014-03-11 04:07:00,
2014-03-10 23:12:00,69.1,54.2,29.99,NE,40,0.0,0.0,59,0.00,,FEW018,0.00,VWS V14.00,2014-03-11 04:12:00,
2014-03-10 23:17:00,68.9,54.0,29.99,NE,40,0.0,0.0,59,0.00,,FEW018,0.00,VWS V14.00,2014-03-11 04:17:00,
2014-03-10 23:22:00,68.8,53.9,29.99,NE,40,0.0,0.0,59,0.00,,FEW018,0.00,VWS V14.00,2014-03-11 04:22:00,
2014-03-10 23:27:00,68.6,54.2,29.99,NE,40,0.0,0.0,60,0.00,,FEW018,0.00,VWS V14.00,2014-03-11 04:27:00,
2014-03-10 23:32:00,68.4,54.0,29.98,NE,40,0.0,0.0,60,0.00,,FEW018,0.00,VWS V14.00,2014-03-11 04:32:00,
2014-03-10 23:37:00,68.3,53.9,29.98,NE,40,0.0,0.0,60,0.00,,FEW018,0.00,VWS V14.00,2014-03-11 04:37:00,
2014-03-10 23:42:00,68.3,53.9,29.98,NE,40,0.0,0.0,60,0.00,,FEW018,0.00,VWS V14.00,2014-03-11 04:42:00,
2014-03-10 23:47:00,68.1,54.2,29.98,NE,40,0.0,0.0,61,0.00,,FEW018,0.00,VWS V14.00,2014-03-11 04:47:00,
2014-03-10 23:52:00,67.9,54.0,29.98,NE,40,0.0,0.0,61,0.00,,FEW018,0.00,VWS V14.00,2014-03-11 04:52:00,
2014-03-10 23:57:00,67.8,53.9,29.98,NE,40,0.0,0.0,61,0.00,,FEW018,0.00,VWS V14.00,2014-03-11 04:57:00,